******************************************************************************* JPL/HORIZONS (2020 CD3) 2025-Dec-12 17:54:08 Rec #:50412103 (+COV) Soln.date: 2021-Jun-25_15:07:42 # obs: 128 (2018-2020) IAU76/J2000 helio. ecliptic osc. elements (au, days, deg., period=Julian yrs): EPOCH= 2458914.5 ! 2020-Mar-06.00 (TDB) Residual RMS= .078773 EC= .03494529757096312 QR= .9863971818171792 TP= 2458866.3996462021 OM= 134.7432090092998 W= 342.2597100247675 IN= .7388576324362984 A= 1.022115305313184 MA= 45.87779192987005 ADIST= 1.057833428809189 PER= 1.03338 N= .953793232 ANGMOM= .017380651 DAN= .98798 DDN= 1.05602 L= 117.0043016 B= -.2251264 MOID= .00224417 TP= 2020-Jan-17.8996462021 Asteroid physical parameters (km, seconds, rotational period in hours): GM= n.a. RAD= n.a. ROTPER= n.a. H= 31.74 G= .150 B-V= n.a. ALBEDO= n.a. STYP= n.a. Non-default Earth gravity model (EOBL_LIM= au): EOBL_LIM= 0.100 EOBL_MOD = 4x4 Asteroid non-gravitational force model (AMRAT= m^2/kg;A1,A2,A3=au/d^2;R0=au): AMRAT= 0. A1= 1.356929074973E-10 A2= 0. A3= 0. Non-standard or simulated/proxy model: ALN= 1. NK= 0. NM= 2. NN= 0. R0= 1. ASTEROID comments: 1: soln ref.= JPL#27, OCC=0 2: source=ORB ******************************************************************************* ******************************************************************************* Ephemeris / WWW_USER Fri Dec 12 17:54:08 2025 Pasadena, USA / Horizons ******************************************************************************* Target body name: (2020 CD3) {source: JPL#27} Center body name: Earth (399) {source: DE441} Center-site name: GEOCENTRIC ******************************************************************************* Start time : A.D. 2082-Sep-01 00:00:00.0000 UT Stop time : A.D. 2082-Nov-19 00:00:00.0000 UT Step-size : 1440 minutes ******************************************************************************* Target pole/equ : undefined Target radii : undefined Center geodetic : 0.0, 0.0, -6378.137 {E-lon(deg),Lat(deg),Alt(km)} Center cylindric: 0.0, 0.0, 0.0 {E-lon(deg),Dxy(km),Dz(km)} Center pole/equ : ITRF93 {East-longitude positive} Center radii : 6378.137, 6378.137, 6356.752 km {Equator_a, b, pole_c} Target primary : Sun Vis. interferer : MOON (R_eq= 1737.400) km {source: DE441} Rel. light bend : Sun {source: DE441} Rel. lght bnd GM: 1.3271E+11 km^3/s^2 Small-body perts: Yes {source: SB441-N16} Atmos refraction: NO (AIRLESS) RA format : HMS Time format : CAL Calendar mode : Mixed Julian/Gregorian EOP file : eop.251212.p260310 EOP coverage : DATA-BASED 1962-JAN-20 TO 2025-DEC-12. PREDICTS-> 2026-MAR-09 Units conversion: 1 au= 149597870.700 km, c= 299792.458 km/s, 1 day= 86400.0 s Table cut-offs 1: Elevation (-90.0deg=NO ),Airmass (>38.000=NO), Daylight (NO ) Table cut-offs 2: Solar elongation ( 0.0,180.0=NO ),Local Hour Angle( 0.0=NO ) Table cut-offs 3: RA/DEC angular rate ( 0.0=NO ) ******************************************************************************* Initial IAU76/J2000 heliocentric ecliptic osculating elements (au, days, deg.): EPOCH= 2458914.5 ! 2020-Mar-06.00 (TDB) Residual RMS= .078773 EC= .03494529757096312 QR= .9863971818171792 TP= 2458866.3996462021 OM= 134.7432090092998 W= 342.2597100247675 IN= .7388576324362984 Equivalent ICRF heliocentric cartesian coordinates (au, au/d): X=-9.675822914533228E-01 Y= 2.212974108216997E-01 Z= 1.031890496759188E-01 VX=-4.692966798948430E-03 VY=-1.547085528646655E-02 VZ=-6.494577482405959E-03 Asteroid physical parameters (km, seconds, rotational period in hours): GM= n.a. RAD= n.a. ROTPER= n.a. H= 31.74 G= .150 B-V= n.a. Non-default Earth gravity model (EOBL_LIM= au): EOBL_LIM= 0.100 EOBL_MOD = 4x4 Asteroid non-gravitational force model (AMRAT= m^2/kg;A1,A2,A3=au/d^2;R0=au): AMRAT= 0. A1= 1.356929074973E-10 A2= 0. A3= 0. Non-standard or simulated/proxy model: ALN= 1. NK= 0. NM= 2. NN= 0. R0= 1. ******************************************************************************* Date__(UT)__HR:MN delta deldot *************************************************** $$SOE 2082-Sep-01 00:00 0.01005621948533 -0.1599701 2082-Sep-02 00:00 0.00995961721140 -0.1744921 2082-Sep-03 00:00 0.00985470430410 -0.1887373 2082-Sep-04 00:00 0.00974165576583 -0.2026560 2082-Sep-05 00:00 0.00962067040732 -0.2162155 2082-Sep-06 00:00 0.00949196131573 -0.2293990 2082-Sep-07 00:00 0.00935574671551 -0.2422053 2082-Sep-08 00:00 0.00921224149480 -0.2546469 2082-Sep-09 00:00 0.00906164970143 -0.2667484 2082-Sep-10 00:00 0.00890415821927 -0.2785443 2082-Sep-11 00:00 0.00873993160508 -0.2900772 2082-Sep-12 00:00 0.00856910778755 -0.3013967 2082-Sep-13 00:00 0.00839179407143 -0.3125593 2082-Sep-14 00:00 0.00820806274305 -0.3236300 2082-Sep-15 00:00 0.00801794557276 -0.3346847 2082-Sep-16 00:00 0.00782142670649 -0.3458129 2082-Sep-17 00:00 0.00761843391259 -0.3571205 2082-Sep-18 00:00 0.00740882900748 -0.3687297 2082-Sep-19 00:00 0.00719239959076 -0.3807738 2082-Sep-20 00:00 0.00696885583189 -0.3933849 2082-Sep-21 00:00 0.00673783726991 -0.4066712 2082-Sep-22 00:00 0.00649893407040 -0.4206907 2082-Sep-23 00:00 0.00625172353947 -0.4354271 2082-Sep-24 00:00 0.00599581667790 -0.4507795 2082-Sep-25 00:00 0.00573090855224 -0.4665535 2082-Sep-26 00:00 0.00545684994280 -0.4823781 2082-Sep-27 00:00 0.00517380819408 -0.4974916 2082-Sep-28 00:00 0.00488251973170 -0.5107253 2082-Sep-29 00:00 0.00458442960534 -0.5208425 2082-Sep-30 00:00 0.00428170762229 -0.5265171 2082-Oct-01 00:00 0.00397741592213 -0.5259086 2082-Oct-02 00:00 0.00367593349254 -0.5162293 2082-Oct-03 00:00 0.00338362126454 -0.4933393 2082-Oct-04 00:00 0.00310969750932 -0.4514655 2082-Oct-05 00:00 0.00286713046378 -0.3835596 2082-Oct-06 00:00 0.00267287433742 -0.2834491 2082-Oct-07 00:00 0.00254605141088 -0.1508442 2082-Oct-08 00:00 0.00250279161374 0.0029448 2082-Oct-09 00:00 0.00254931429353 0.1560427 2082-Oct-10 00:00 0.00267872147260 0.2871947 2082-Oct-11 00:00 0.00287475540348 0.3860549 2082-Oct-12 00:00 0.00311836673768 0.4527432 2082-Oct-13 00:00 0.00339297424539 0.4947769 2082-Oct-14 00:00 0.00368639072563 0.5188108 2082-Oct-15 00:00 0.00398977186151 0.5300813 2082-Oct-16 00:00 0.00429701237215 0.5327614 2082-Oct-17 00:00 0.00460405852552 0.5298063 2082-Oct-18 00:00 0.00490826744638 0.5231962 2082-Oct-19 00:00 0.00520792640760 0.5142135 2082-Oct-20 00:00 0.00550191412889 0.5036536 2082-Oct-21 00:00 0.00578946522533 0.4919747 2082-Oct-22 00:00 0.00607000894813 0.4794091 2082-Oct-23 00:00 0.00634306573905 0.4660540 2082-Oct-24 00:00 0.00660819138993 0.4519454 2082-Oct-25 00:00 0.00686495813774 0.4371109 2082-Oct-26 00:00 0.00711295910257 0.4215979 2082-Oct-27 00:00 0.00735182212684 0.4054789 2082-Oct-28 00:00 0.00758122278131 0.3888449 2082-Oct-29 00:00 0.00780089178583 0.3717940 2082-Oct-30 00:00 0.00801061647305 0.3544228 2082-Oct-31 00:00 0.00821023805100 0.3368208 2082-Nov-01 00:00 0.00839964674160 0.3190681 2082-Nov-02 00:00 0.00857877631884 0.3012353 2082-Nov-03 00:00 0.00874759884351 0.2833846 2082-Nov-04 00:00 0.00890611982279 0.2655698 2082-Nov-05 00:00 0.00905437370006 0.2478372 2082-Nov-06 00:00 0.00919241946895 0.2302255 2082-Nov-07 00:00 0.00932033623441 0.2127656 2082-Nov-08 00:00 0.00943821863548 0.1954803 2082-Nov-09 00:00 0.00954617213968 0.1783843 2082-Nov-10 00:00 0.00964430827422 0.1614839 2082-Nov-11 00:00 0.00973273985684 0.1447773 2082-Nov-12 00:00 0.00981157623104 0.1282542 2082-Nov-13 00:00 0.00988091842602 0.1118960 2082-Nov-14 00:00 0.00994085410162 0.0956750 2082-Nov-15 00:00 0.00999145217890 0.0795538 2082-Nov-16 00:00 0.01003275728194 0.0634858 2082-Nov-17 00:00 0.01006478458431 0.0474162 2082-Nov-18 00:00 0.01008751629857 0.0312865 2082-Nov-19 00:00 0.01010090155881 0.0150421 $$EOE ******************************************************************************* Column meaning: TIME Times PRIOR to 1962 are UT1, a mean-solar time closely related to the prior but now-deprecated GMT. Times AFTER 1962 are in UTC, the current civil or "wall-clock" time-scale. UTC is kept within 0.9 seconds of UT1 using integer leap-seconds for 1972 and later years. Conversion from the internal Barycentric Dynamical Time (TDB) of solar system dynamics to the non-uniform civil UT time-scale requested for output has not been determined for UTC times after the next July or January 1st. Therefore, the last known leap-second is used as a constant over future intervals. Time tags refer to the UT time-scale conversion from TDB on Earth regardless of observer location within the solar system, although clock rates may differ due to the local gravity field and no analog to "UT" may be defined for that location. Any 'b' symbol in the 1st-column denotes a B.C. date. First-column blank (" ") denotes an A.D. date. CALENDAR SYSTEM Mixed calendar mode was active such that calendar dates after AD 1582-Oct-15 (if any) are in the modern Gregorian system. Dates prior to 1582-Oct-5 (if any) are in the Julian calendar system, which is automatically extended for dates prior to its adoption on 45-Jan-1 BC. The Julian calendar is useful for matching historical dates. The Gregorian calendar more accurately corresponds to the Earth's orbital motion and seasons. A "Gregorian-only" calendar mode is available if such physical events are the primary interest. NOTE: "n.a." in output means quantity "not available" at the print-time. 'delta deldot' = Apparent range ("delta", light-time aberrated) and range-rate ("delta-dot") of the target center relative to the observer. A positive "deldot" means the target center is moving away from the observer, negative indicates movement toward the observer. Units: AU and KM/S Computations by ... Solar System Dynamics Group, Horizons On-Line Ephemeris System 4800 Oak Grove Drive, Jet Propulsion Laboratory Pasadena, CA 91109 USA General site: https://ssd.jpl.nasa.gov/ Mailing list: https://ssd.jpl.nasa.gov/email_list.html System news : https://ssd.jpl.nasa.gov/horizons/news.html User Guide : https://ssd.jpl.nasa.gov/horizons/manual.html Connect : browser https://ssd.jpl.nasa.gov/horizons/app.html#/x API https://ssd-api.jpl.nasa.gov/doc/horizons.html command-line telnet ssd.jpl.nasa.gov 6775 e-mail/batch https://ssd.jpl.nasa.gov/ftp/ssd/horizons_batch.txt scripts https://ssd.jpl.nasa.gov/ftp/ssd/SCRIPTS Author : Jon.D.Giorgini@jpl.nasa.gov ******************************************************************************* !$$SOF COMMAND = '2020 CD3' QUANTITIES = '20' START_TIME = '2082-Sep-01' STEP_SIZE = '1 day' STOP_TIME = '2082-Nov-19'